Weather History for Beatrice, NE

Change the Weather History Date:

Sunday, December 23, 2012

  Actual Average Record
Temperature  
Mean Temperature 19 °F -  
Max Temperature 24 °F 36 °F 77 °F (1964)
Min Temperature 14 °F 18 °F -10 °F (1983)
Degree Days  
Heating Degree Days 46    
Moisture  
Dew Point 13 °F    
Average Humidity 79    
Maximum Humidity 86    
Minimum Humidity 71    
Precipitation  
Precipitation 0.00 in - - ()
Sea Level Pressure  
Sea Level Pressure 29.99 in    
Wind  
Wind Speed 9 mph (North)    
Max Wind Speed 13 mph    
Max Gust Speed -    
Visibility 7 miles    
Events      
Averages and records for this station are not official NWS values.
T = Trace of Precipitation, MM = Missing Value Source: NWS Daily Summary

Daily Weather History Graph

Daily Weather History Graph

Search for Another Location

Airport:

Trip Planner

Search our weather history database for the weather conditions in past years. The results will help you decide how hot, cold, wet, or windy it might be!

Date:

Astronomy

Dec. 23, 2012 Rise Set
Actual Time 7:47 AM CST 5:05 PM CST
Civil Twilight 7:16 AM CST 5:36 PM CST
Nautical Twilight 6:42 AM CST 6:10 PM CST
Astronomical Twilight 6:09 AM CST 6:43 PM CST
Moon 1:57 PM CST 3:30 AM CST
Length of Visible Light 10h 19m
Length of Day
9h 18m
Waxing Gibbous, 82% of the Moon is Illuminated
Dec 23
Waxing Gibbous
Dec 28
Full
Jan 4
Last Quarter
Jan 11
New
Jan 18
First Quarter

Hourly Weather History & Observations

Time (CST) Temp. Windchill Dew Point Humidity Pressure Visibility Wind Dir Wind Speed Gust Speed Precip Events Conditions
12:15 AM 23.0 °F 12.4 °F 18.7 °F 84% 30.00 in 7.0 mi North 10.4 mph - N/A   Clear
12:35 AM 22.8 °F 11.5 °F 18.5 °F 83% 30.00 in 7.0 mi North 11.5 mph - N/A   Clear
12:55 AM 22.3 °F 12.2 °F 18.1 °F 84% 30.00 in 7.0 mi North 9.2 mph - N/A   Clear
1:15 AM 21.4 °F 9.1 °F 17.2 °F 84% 30.00 in 7.0 mi North 12.7 mph - N/A   Clear
1:35 AM 21.0 °F 9.9 °F 16.7 °F 83% 29.99 in 7.0 mi North 10.4 mph - N/A   Clear
1:55 AM 20.1 °F 10.3 °F 15.8 °F 83% 30.00 in 7.0 mi North 8.1 mph - N/A   Clear
2:15 AM 19.9 °F 8.6 °F 15.8 °F 84% 30.00 in 7.0 mi North 10.4 mph - N/A   Clear
2:35 AM 19.6 °F 8.1 °F 15.3 °F 83% 30.00 in 7.0 mi North 10.4 mph - N/A   Scattered Clouds
2:55 AM 19.0 °F 7.5 °F 14.9 °F 84% 30.00 in 7.0 mi North 10.4 mph - N/A   Clear
3:15 AM 18.5 °F 6.1 °F 14.2 °F 83% 30.00 in 7.0 mi North 11.5 mph - N/A   Scattered Clouds
3:35 AM 18.1 °F 5.6 °F 14.0 °F 84% 30.00 in 7.0 mi North 11.5 mph - N/A   Clear
3:55 AM 18.0 °F 5.4 °F 13.6 °F 83% 30.00 in 7.0 mi North 11.5 mph - N/A   Clear
4:15 AM 17.6 °F 5.7 °F 13.6 °F 84% 30.00 in 7.0 mi North 10.4 mph - N/A   Clear
4:35 AM 17.1 °F 5.0 °F 12.7 °F 83% 30.01 in 7.0 mi North 10.4 mph - N/A   Clear
4:55 AM 16.7 °F 3.8 °F 12.4 °F 83% 30.01 in 7.0 mi North 11.5 mph - N/A   Clear
5:15 AM 16.3 °F 4.1 °F 12.2 °F 84% 30.00 in 7.0 mi North 10.4 mph - N/A   Clear
5:35 AM 16.2 °F 4.7 °F 11.8 °F 83% 30.00 in 7.0 mi North 9.2 mph - N/A   Clear
5:55 AM 15.8 °F 5.1 °F 12.2 °F 86% 30.01 in 7.0 mi North 8.1 mph - N/A   Clear
6:15 AM 15.4 °F 5.6 °F 11.1 °F 83% 30.00 in 7.0 mi North 6.9 mph - N/A   Clear
6:35 AM 14.9 °F 4.0 °F 10.4 °F 82% 30.01 in 7.0 mi North 8.1 mph - N/A   Clear
6:55 AM 14.9 °F 3.1 °F 10.8 °F 84% 30.01 in 7.0 mi North 9.2 mph - N/A   Clear
7:15 AM 14.5 °F 5.7 °F 10.4 °F 84% 30.01 in 7.0 mi North 5.8 mph - N/A   Clear
7:35 AM 14.7 °F 2.9 °F 9.9 °F 81% 30.02 in 10.0 mi North 9.2 mph - N/A   Clear
7:55 AM 14.4 °F 3.3 °F 9.5 °F 81% 30.01 in 7.0 mi NNE 8.1 mph - N/A   Clear
8:15 AM 14.5 °F 1.9 °F 9.5 °F 80% 30.02 in 7.0 mi North 10.4 mph - N/A   Clear
8:35 AM 14.9 °F 3.1 °F 9.5 °F 79% 30.02 in 7.0 mi North 9.2 mph - N/A   Clear
8:55 AM 15.4 °F 1.6 °F 10.2 °F 80% 30.02 in 7.0 mi NNE 12.7 mph - N/A   Clear
9:15 AM 15.8 °F 3.4 °F 10.4 °F 79% 30.01 in 7.0 mi NE 10.4 mph - N/A   Clear
9:35 AM 16.7 °F 5.3 °F 11.1 °F 79% 30.00 in 7.0 mi NE 9.2 mph - N/A   Clear
9:55 AM 17.4 °F 7.1 °F 11.5 °F 78% 30.00 in 7.0 mi NE 8.1 mph - N/A   Clear
10:15 AM 18.1 °F 8.9 °F 11.7 °F 76% 30.02 in 7.0 mi NNE 6.9 mph - N/A   Clear
10:35 AM 18.7 °F 10.6 °F 12.6 °F 77% 30.01 in 7.0 mi NE 5.8 mph - N/A   Clear
10:55 AM 19.6 °F 11.7 °F 13.6 °F 78% 30.01 in 7.0 mi NNE 5.8 mph - N/A   Clear
11:15 AM 20.3 °F 13.8 °F 14.2 °F 77% 30.00 in 7.0 mi NE 4.6 mph - N/A   Clear
11:35 AM 21.0 °F 16.2 °F 14.5 °F 76% 30.01 in 7.0 mi NW 3.5 mph - N/A   Clear
11:55 AM 22.1 °F 14.7 °F 15.3 °F 75% 30.01 in 7.0 mi North 5.8 mph - N/A   Scattered Clouds
12:15 PM 22.5 °F 15.1 °F 15.8 °F 76% 30.00 in 7.0 mi NNW 5.8 mph - N/A   Clear
12:35 PM 22.8 °F 16.7 °F 15.8 °F 74% 29.98 in 7.0 mi NNW 4.6 mph - N/A   Scattered Clouds
12:55 PM 23.7 °F 14.7 °F 16.7 °F 75% 29.96 in 7.0 mi North 8.1 mph - N/A   Scattered Clouds
1:15 PM 23.7 °F 15.6 °F 16.5 °F 74% 29.95 in 7.0 mi North 6.9 mph - N/A   Scattered Clouds
1:35 PM 23.9 °F 16.8 °F 16.7 °F 74% 29.96 in 7.0 mi North 5.8 mph - N/A   Scattered Clouds
1:55 PM 24.6 °F 16.7 °F 16.9 °F 72% 29.96 in 7.0 mi North 6.9 mph - N/A   Scattered Clouds
2:15 PM 23.9 °F 15.0 °F 15.8 °F 71% 29.96 in 7.0 mi NNW 8.1 mph - N/A   Scattered Clouds
2:35 PM 23.4 °F 14.3 °F 15.8 °F 73% 29.96 in 7.0 mi North 8.1 mph - N/A   Clear
2:55 PM 23.0 °F 13.9 °F 15.4 °F 73% 29.95 in 7.0 mi NNW 8.1 mph - N/A   Clear
3:15 PM 23.0 °F 14.7 °F 15.6 °F 73% 29.94 in 7.0 mi North 6.9 mph - N/A   Clear
3:35 PM 22.8 °F 13.6 °F 15.6 °F 74% 29.94 in 10.0 mi North 8.1 mph - N/A   Clear
3:55 PM 22.1 °F 13.7 °F 14.7 °F 73% 29.95 in 7.0 mi North 6.9 mph - N/A   Clear
4:15 PM 21.9 °F 13.4 °F 14.7 °F 74% 29.95 in 7.0 mi North 6.9 mph - N/A   Clear
4:35 PM 21.6 °F 13.0 °F 14.5 °F 74% 29.95 in 7.0 mi North 6.9 mph - N/A   Clear
4:55 PM 21.2 °F 10.9 °F 14.2 °F 74% 29.95 in 7.0 mi North 9.2 mph - N/A   Clear
5:15 PM 20.8 °F 10.4 °F 14.0 °F 75% 29.96 in 10.0 mi NNW 9.2 mph - N/A   Clear
5:35 PM 20.7 °F 13.0 °F 13.8 °F 75% 29.97 in 10.0 mi NW 5.8 mph - N/A   Clear
5:55 PM 20.3 °F 12.5 °F 13.8 °F 76% 29.98 in 10.0 mi NW 5.8 mph - N/A   Clear
6:15 PM 20.3 °F 11.5 °F 14.0 °F 77% 29.98 in 10.0 mi NW 6.9 mph - N/A   Clear
6:35 PM 20.1 °F 10.3 °F 13.6 °F 76% 29.97 in 10.0 mi North 8.1 mph - N/A   Clear
6:55 PM 20.1 °F 9.5 °F 13.8 °F 77% 29.99 in 10.0 mi NNW 9.2 mph - N/A   Clear
7:15 PM 19.4 °F 8.6 °F 13.1 °F 76% 29.99 in 10.0 mi North 9.2 mph - N/A   Clear
7:35 PM 19.2 °F 10.2 °F 13.1 °F 77% 29.99 in 7.0 mi NNW 6.9 mph - N/A   Clear
7:55 PM 18.9 °F 8.8 °F 13.1 °F 78% 30.00 in 7.0 mi North 8.1 mph - N/A   Clear
8:15 PM 18.5 °F 9.3 °F 12.7 °F 78% 29.99 in 7.0 mi North 6.9 mph - N/A   Clear
8:35 PM 17.6 °F 9.3 °F 12.2 °F 79% 29.99 in 7.0 mi North 5.8 mph - N/A   Clear
8:55 PM 17.2 °F 8.9 °F 12.2 °F 81% 30.00 in 7.0 mi NNW 5.8 mph - N/A   Clear
9:15 PM 16.7 °F - 12.2 °F 82% 29.99 in 7.0 mi Calm Calm - N/A   Clear
9:35 PM 16.0 °F 7.4 °F 11.1 °F 81% 29.99 in 7.0 mi NNW 5.8 mph - N/A   Clear
9:55 PM 14.9 °F 4.0 °F 10.4 °F 82% 30.00 in 7.0 mi NNW 8.1 mph - N/A   Clear
10:15 PM 15.4 °F 3.8 °F 11.3 °F 84% 30.02 in 7.0 mi NW 9.2 mph - N/A   Clear
10:35 PM 14.9 °F 7.5 °F 10.4 °F 82% 30.02 in 7.0 mi NW 4.6 mph - N/A   Clear
10:55 PM 14.2 °F 4.1 °F 9.9 °F 83% 30.02 in 7.0 mi NW 6.9 mph - N/A   Clear
11:15 PM 15.4 °F 4.6 °F 11.1 °F 83% 30.03 in 7.0 mi NW 8.1 mph - N/A   Clear
11:35 PM 15.1 °F 5.2 °F 10.8 °F 83% 30.03 in 7.0 mi NW 6.9 mph - N/A   Clear
11:55 PM 14.7 °F 5.9 °F 10.4 °F 83% 30.02 in 7.0 mi NW 5.8 mph - N/A   Clear